User: anonymous   Login
Location: Unspecified
(0.0000°N, 0.0000°E)
Time: 19:15:33
(UTC+00:00)
Language:

MOZHAYETS - Orbit

View from above orbital plane
View from above orbital plane
View from above satellite
View from above satellite

Ground track
Ground track

The orbit data is extracted from the following two-line orbital elements,

1 27560U 02054B   19341.39026879  .00000082  00000-0  28235-4 0  9997
2 27560  98.3317 120.2035 0040994 189.2376 170.8080 14.57809994903583
Epoch (UTC): 07 December 2019 09:21:59
Eccentricity: 0.0040994
inclination: 98.3317°
perigee height: 671 km
apogee height: 729 km
right ascension of ascending node: 120.2035°
argument of perigee: 189.2376°
revolutions per day: 14.57809994
mean anomaly at epoch: 170.8080°
orbit number at epoch: 90358

The dashed part of the orbit path shows where the satellite is in the earth's shadow,  

DLR